Location: Bartshausen
(51.8454°N, 9.8167°E)
Time: 02:18:13
(UTC+00:00)

Cosmos 1400 Rocket - Pass Details

Date: 08 November 2025
Orbit: 476 x 513 km, 81.1° (Epoch: 15 December)

Event Time Altitude Azimuth Distance (km) Brightness Sun altitude
Rises 05:12:38 0° 352° (N) 2,618 6.1 -11.8°
Reaches altitude 10° 05:14:52 10° 360° (N) 1,721 5.2 -11.4°
Maximum altitude 05:18:27 41° 71° (ENE) 737 4.0 -10.9°
Drops below altitude 10° 05:21:58 10° 143° (SE) 1,684 6.1 -10.4°
Sets 05:24:08 0° 151° (SSE) 2,554 6.9 -10.1°
